Regional Weather Roundup
Issued by NWS San Diego, CA

Home | Current Version | Previous Version | Text Only | Print | Product List | Glossary On
Versions: 1 2 3 4 5 6 7 8 9 10 11 12 13 14 15 16 17 18 19 20 21 22 23 24 25 26 27 28 29 30 31 32 33 34 35 36 37 38 39 40 41 42 43 44 45 46 47 48 49 50
000
ASUS46 KSGX 200410
RWRSGX

SAN DIEGO HOURLY WEATHER ROUNDUP
NATIONAL WEATHER SERVICE SAN DIEGO CA
900 PM PDT SAT APR 19 2014

NOTE: "FAIR" INDICATES FEW OR NO CLOUDS BELOW 12,000 FEET WITH NO
SIGNIFICANT WEATHER AND/OR OBSTRUCTIONS TO VISIBILITY.

CAZ042-043-060-061-PZZ750-775-200500-

GREATER SAN DIEGO AREA

CITY           SKY/WX    TMP DP  RH WIND       PRES   REMARKS
LINDBERGH FLD  MOCLDY    64  55  72 W5        30.06R
NATIONAL CITY    N/A     62  57  82 W2        30.05R
CHULA VISTA      N/A     62  58  86 CALM      29.98R
IMPERIAL BEACH CLEAR     61  56  83 W3        30.05S
BROWN FIELD    CLEAR     58  54  86 W3        30.04R
MIRAMAR MCAS   PTCLDY    59  53  80 W6        29.99R
MONTGOMERY FLD PTCLDY    61  55  81 W6        30.05R

$$

NORTH SAN DIEGO COUNTY

CITY           SKY/WX    TMP DP  RH WIND       PRES   REMARKS
CAMP PENDLETON CLEAR     61  55  81 SW3       30.04R
RED BEACH      CLOUDY    62  56  80 CALM      30.04R
OCEANSIDE AP   PTCLDY    60  56  86 SW3       30.03R
VISTA            N/A     60  56  85 CALM      30.02R
CARLSBAD       CLOUDY    61  55  81 W3        30.04R
DEL MAR          N/A     60  57  89 CALM      30.06R
FALLBROOK        N/A     59  58  99 CALM      30.04R
SAN MARCOS       N/A     60  54  81 CALM      30.03R
POWAY            N/A     60  55  82 CALM      30.05R
R. PENASQUITOS   N/A     60  54  83 CALM      30.04R

$$

EAST SAN DIEGO COUNTY

CITY           SKY/WX    TMP DP  RH WIND       PRES   REMARKS
RAMONA         CLEAR     55  51  86 W5        30.04R
SANTEE LAKES     N/A     60  55  84 CALM      30.06R
GILLESPIE FLD  FAIR      61  54  77 W5        30.06R
LA MESA          N/A     61  56  85 CALM      29.98R
JAMUL            N/A     59  55  85 CALM      30.02R
DESCANSO N       N/A     54  49  84 W1        29.91S
MT. LAGUNA OBS   N/A     51  40  65 CALM      29.71
CAMPO            N/A     55  52  89 S6        30.02R

$$

ORANGE COUNTY AND THE LOS ANGELES BASIN

CITY           SKY/WX    TMP DP  RH WIND       PRES   REMARKS
JOHN WAYNE AP  CLEAR     62  55  77 S3        30.02R
LAGUNA BEACH     N/A     60  55  82 CALM      30.00S
LAKE FOREST FR   N/A     59  51  75 CALM      29.93R
SANTA ANA        N/A     64  57  77 CALM      29.97R
HUNTINGTON BCH   N/A     60  56  88 CALM      30.02R
LOS ALAMITOS   FAIR      60  56  85 S5        30.02R
FULLERTON      CLEAR     65  53  65 CALM      30.01R
LONG BEACH     CLEAR     63  51  65 S3        30.01R
L.A. AP        PTCLDY    61  55  81 SW5       30.01R
L.A. DOWNTOWN  CLEAR     62  53  72 CALM      30.00R

$$

THE INLAND EMPIRE

CITY           SKY/WX    TMP DP  RH WIND       PRES   REMARKS
CORONA         CLEAR     66  50  56 W8        30.01R
CHINO          CLEAR     63  54  72 SW8       30.02R
ONTARIO        PTCLDY    65  52  62 W7        30.01R
SAN BERNARDINO CLEAR     64  50  59 SW8       30.02R
RIVERSIDE AP   CLEAR     65  53  65 W7        30.02R
RIV CYN CREST    N/A     65  60  83 W6        30.00R
MORENO VALLEY    N/A     64  57  78 W3        28.12R
MARCH ARB      CLEAR     63  52  67 NW8       30.04R
HORSETHIEF CYN   N/A     64  46  53 CALM      30.02R
PERRIS           N/A     65  53  64 NW3         N/A
MENIFEE          N/A     63  57  81 S6        30.06R
HEMET EAST       N/A     65  51  58 CALM      30.01R
FRENCH VALLEY  NOT AVBL
TEMECULA         N/A     61  55  82 S3        30.01R

$$

SAN BERNARDINO AND RIVERSIDE COUNTY MOUNTAINS

CITY           SKY/WX    TMP DP  RH WIND       PRES   REMARKS
BIG BEAR AP    CLEAR     45  37  76 CALM      30.20R
BIG BEAR SHEA    N/A     46  34  64 CALM      30.02R
ANGELUS OAKS     N/A     48  33  55 MISG      29.95R
PINE COVE        N/A     49  43  81 NW3       30.01R

$$

SOUTHERN DESERT INCLUDING THE COACHELLA VALLEY

CITY           SKY/WX    TMP DP  RH WIND       PRES   REMARKS
PALM SPRINGS   CLEAR     81  46  29 S6        29.91R
THOUSAND PALMS   N/A     80  47  31 N5        29.87R
PALM DESERT      N/A     80  51  36 CALM      29.49S
THERMAL        CLEAR     75  49  39 NE7       29.86R
BLYTHE         CLEAR     83  42  23 SW9       29.89R
IMPERIAL AP    PTCLDY    80  42  25 S5        29.87R
EL CENTRO NAS  CLEAR     77  44  30 SE6       29.87R
YUMA AZ        CLEAR     80  44  27 W3        29.89R
MEXICALI       CLEAR     77  43  29 SE6       29.89R

$$

UPPER DESERT

CITY           SKY/WX    TMP DP  RH WIND       PRES   REMARKS
VICTORVILLE AP CLEAR     68  45  42 W14G22    30.03R
HESPERIA         N/A     65  39  39 W1        30.09R
GRAY BUTTE AP  NOT AVBL
PALMDALE       CLEAR     67  43  41 W10       30.03R
LANCASTER      CLEAR     67  43  41 W14       30.02R
EDWARDS AFB    CLEAR     70  42  36 SW14      29.99R
DAGGETT        CLEAR     77  42  28 W22       29.95R
29 PALMS N     CLEAR     75  41  29 SW14      30.01R
NEEDLES        CLEAR     84  36  18 SW7       29.89R

$$

REGIONAL REPORTS

CITY           SKY/WX    TMP DP  RH WIND       PRES   REMARKS
SANTA BARBARA  CLEAR     58  53  84 S5        29.97R
SANDBERG       CLEAR     60  40  47 NW26      30.12S
MT. WILSON       N/A     52  39  62 NE1         N/A
LAS VEGAS NV   CLEAR     80  34  19 SW7       29.88R
PHOENIX AZ     PTCLDY    81  38  21 S3        29.92R
TIJUANA        PTCLDY    59  52  77 CALM      30.05R

$$

OFFSHORE ISLANDS

CITY           SKY/WX    TMP DP  RH WIND       PRES   REMARKS
CATALINA ARPT  CLEAR     59  47  64 W10       30.04R
SAN NICOLAS IS CLEAR    N/A N/A N/A W25       30.02R

$$

MARINE AND OFFSHORE BUOY REPORTS

STATION/POSITION SKY/WX   TEMP    WIND        PRES    SWELL
                          AIR SEA DIR/SP/G            HT/PER/DIR
                          (F)     (DEG/KT/KT) (MB)    (FT/S/D)
S CLEMENTE BASIN           60 63  300/  8/ 12 1017.1R   5/290/15
SAN NICOLAS IS.               59                N/A     5/280/15
SO. S. ROSA ISLA           57 58  310/ 23/ 29 1016.3R   3/10
W. S. BARBARA CH           55 54  320/ 23/ 27 1016.1R   5/300/15
S. MONICA BASIN            59 61   40/  4/  4 1015.4R   3/260/ 6
S PEDRO CHANNEL               60                N/A     2/250/14
DANA POINT                    61                N/A     2/210/14
CMP PENDLETON NS              62                N/A     2/220/18
OCEANSIDE OFFSHR              62                N/A     2/200/15
TORREY PINES OTR              63                N/A     3/210/17
LA JOLLA 1                 62 63  280/  2/  3 1017.4R
MISSION BAY BUOY              62                N/A     3/260/14
SAN DIEGO BAY                 66              1017.4S
POINT LOMA SOUTH              63                N/A     3/180/18

$$




USA.gov is the U.S. government's official web portal to all federal, state and local government web resources and services.